sat.trackr.live / text

‹ back to catalog

STARLINK-35761

NORAD 66961 · 2025-288C

PAYLOAD ACTIVE UNKNOWN

§ Identity

Operator
Country
US
Launch date
2025-12-08
Launch site
AFETR
Launch vehicle
Mass (kg)
RCS (m²)

Purposes: comms

External: N2YO · Heavens-Above · Gunter

§ Orbital elements

Epoch: 2026-09-20T06:59:48.266304Z

Period
94.27 min
Inclination
43.0002°
Eccentricity
0.0001176
Mean motion
15.27586439 rev/d
Perigee alt
482.2 km
Apogee alt
483.8 km
Semi-major
6,861.2 km
B*
4.6885e-4
RAAN
4.0677°
Arg perigee
265.8516°
Mean anomaly
94.2201°
Rev number
4,505

§ Raw data

STARLINK-357611 66961U 25288C   26263.29153086  .00012664  00000+0  46885-3 0  99982 66961  43.0002   4.0677 0001176 265.8516  94.2201 15.27586439 45053

JSON: /api/v1/satellites/66961 · /tle

For live sub-satellite position, see the globe view (requires WebGL).

§ Visibility from observer

Set your observer location to see the next 7 days of passes ≥ 10°. The values pass through the URL so the page stays shareable.

No JS? Fill the form by hand. The geolocation button needs JavaScript.